DateTime,Index
2002082200,0.0
2002082206,0.0
2002082212,0.0
2002082218,0.0
2002082300,2025.0
2002082306,2025.0
2002082312,2500.0
2002082318,3025.0
2002082400,4225.0
2002082406,4225.0
2002082412,4225.0
2002082418,4900.0
2002082500,5625.0
2002082506,6400.0
2002082512,7225.0
2002082518,8100.0
2002082600,10000.0
2002082606,13225.0
2002082612,13225.0
2002082618,13225.0
2002082700,13225.0
2002082706,11025.0
2002082712,8100.0
2002082718,9025.0
2002082800,9025.0
2002082806,8100.0
2002082812,8100.0
2002082818,7225.0
2002082900,7225.0
2002082906,6400.0
2002082912,6400.0
2002082918,6400.0
2002083000,6400.0
2002083006,6400.0
2002083012,5625.0
2002083018,4900.0
2002083100,4900.0
2002083106,4900.0
2002083112,3025.0
2002083118,3025.0
2002090100,2025.0
2002090106,1225.0
